EET,Max TemperatureF,Mean TemperatureF,Min TemperatureF,Max Dew PointF,MeanDew PointF,Min DewpointF,Max Humidity, Mean Humidity, Min Humidity, Max Sea Level PressureIn, Mean Sea Level PressureIn, Min Sea Level PressureIn, Max VisibilityMiles, Mean VisibilityMiles, Min VisibilityMiles, Max Wind SpeedMPH, Mean Wind SpeedMPH, Max Gust SpeedMPH,PrecipitationIn, CloudCover, Events, WindDirDegrees
2012-10-1,77,54,32,30,25,19,70,34,5,30.42,30.37,30.33,12,8,6,12,3,,0.00,2,,263
2012-10-2,79,56,33,39,30,21,65,37,8,30.39,30.34,30.27,12,7,6,13,3,,0.00,3,,200
2012-10-3,77,58,40,43,37,30,76,48,14,30.30,30.23,30.15,12,7,6,17,3,32,0.00,4,,194
2012-10-4,66,54,43,52,46,37,94,71,45,30.18,30.10,30.01,12,7,6,16,7,25,0.51,4,Rain-Thunderstorm,60
2012-10-5,68,54,41,48,44,35,100,71,19,30.21,30.12,30.06,12,7,6,20,5,,0.00,3,Rain,261
2012-10-6,66,52,38,46,42,36,100,70,24,30.30,30.25,30.21,12,7,6,8,3,,0.00,3,Thunderstorm,142
2012-10-7,67,54,41,46,41,37,93,65,27,30.27,30.24,30.21,12,7,6,21,6,21,0.08,4,Rain-Thunderstorm,103
2012-10-8,67,56,45,48,44,37,100,74,24,30.21,30.08,29.98,12,7,6,22,8,23,0.00,6,Rain-Thunderstorm,184
2012-10-9,63,50,37,45,40,30,100,68,18,30.09,30.02,29.98,12,6,6,17,7,,0.12,5,Rain,262
2012-10-10,59,50,42,46,44,41,100,82,44,30.15,30.09,30.06,12,6,6,16,4,,0.12,6,Rain,242
2012-10-11,65,54,44,48,44,37,100,76,33,30.15,30.06,29.98,12,7,6,15,6,39,0.02,6,Rain-Thunderstorm,112
2012-10-12,58,48,39,45,41,37,100,75,42,30.27,30.11,29.98,12,6,6,20,8,,0.02,6,Rain,272
2012-10-13,59,44,28,39,34,28,100,74,21,30.30,30.26,30.24,12,7,6,5,2,,0.00,2,,110
2012-10-14,64,48,31,39,35,28,100,67,18,30.27,30.23,30.18,12,7,6,9,3,,0.00,1,,2
2012-10-15,66,48,29,39,34,28,100,66,17,30.33,30.29,30.27,12,12,12,8,2,,0.00,,,81
2012-10-16,68,48,29,37,32,21,100,61,9,30.36,30.33,30.27,12,8,6,7,2,,0.00,1,,87
2012-10-17,69,49,29,36,31,26,93,57,11,30.36,30.30,30.24,12,7,6,7,2,,0.00,1,,88
2012-10-18,64,46,27,36,29,23,93,52,12,30.33,30.29,30.24,12,7,6,12,4,,0.00,1,,86
2012-10-19,62,46,29,36,31,27,87,53,19,30.30,30.27,30.21,12,7,6,14,5,,0.00,1,,88
2012-10-20,57,46,36,41,37,32,87,64,35,30.30,30.26,30.21,12,7,6,18,13,,0.00,5,,87
2012-10-21,59,46,34,41,38,34,100,70,38,30.30,30.27,30.24,12,7,6,12,5,,0.00,5,,106
2012-10-22,64,48,33,41,38,32,100,70,39,30.33,30.24,30.15,12,7,6,7,3,,0.00,3,,115
2012-10-23,52,44,35,46,41,34,100,85,61,30.15,30.12,30.09,12,7,4,10,4,,0.20,6,Rain,85
2012-10-24,57,47,37,46,41,34,100,76,37,30.15,30.12,30.09,12,6,6,16,6,,0.02,5,Rain,244
2012-10-25,52,44,36,45,40,36,100,85,62,30.15,30.04,29.89,12,7,6,9,3,,0.03,5,Rain,71
2012-10-26,46,42,37,45,41,37,100,94,87,30.04,29.96,29.92,12,6,4,12,4,,0.24,6,Rain,12
2012-10-27,55,46,37,43,39,34,100,84,37,30.15,30.07,30.01,12,6,1,9,5,,0.00,4,Fog-Rain,252
2012-10-28,57,42,27,39,32,27,100,76,31,30.24,30.19,30.15,12,5,0,12,3,,0.00,2,Fog,253
2012-10-29,62,44,25,37,33,27,100,74,22,30.27,30.20,30.15,12,7,6,7,2,,0.00,1,,261
2012-10-30,62,45,28,39,33,28,100,68,22,30.18,30.13,30.06,12,7,2,14,3,,0.00,6,,257
2012-10-31,63,45,27,39,34,28,100,69,23,30.24,30.20,30.18,12,7,6,7,2,,0.00,2,,35